"Pseudo-MPEC" for X76374

Created 2021 Dec 2 1:07:33 UT using Find_Orb

Click here for an explanation of pseudo-MPECs

 
 Astrometry: 
     X76374   C2021 11 11*Mx:-O[Astrometry_Se=!C/redacted;XBT2Y.s4JfF-etS[YZYD29
     X76374   C2021 11 11MB//'tDqB'3d[yxCL2clickm8here2UW-b9@CLme5VFRQkI+gPrQD29
     X76374   C2021 11 11eq)bforCoV5(eGiM:/pfV[explanation3(TMW#:bvE'm)jkxZeMD29

Station data:
(D29) Purple Mountain Observatory, XuYi Station  (N32.734366 E118.463900)
   China.  Observers H. B. Zhao, B. Li, G. Zhaori, R. Q. Hong, L. F. Hu.
   Measurers H. B. Zhao, B. Li. H. Lu, G. Zhaori. 1.04-m f/1.8 Schmidt + CCD.

Orbital elements:  X76374
   Perihelion 2021 Mar 3.488967 +/- 154.399 TT = 11:44:06 (JD 2459276.988967)
Epoch 2021 Nov 12.0 TT = JDT 2459530.5   Earth MOID: 0.3199   AutoNEOCP
M 116.70012386 +/- 102.28868        (J2000 ecliptic)
n   0.46033548 +/- 0.299036         Peri.  231.49761 +/- 83.438979
a   1.66119168 +/- 0.719398         Node    44.43455 +/- 44.971067
e   0.2528686 +/- 0.270767          Incl.   38.77482 +/- 28.721214
P   2.14/782.02d           H 19.5   G  0.15   U 11.9  SR
q 1.24112846 +/- 0.604136    Q 2.08125490 +/- 27.809
From 3 observations 2021 Nov. 11 (40.7 min); mean residual 0".05
Residuals in arcseconds: 
211111 D29  .05-  .01-    211111 D29  .10+  .03+    211111 D29  .05-  .01-    

Ephemerides (geocentric):
Date (UTC) HH   RA              Dec         delta   r     elong  mag " sig PA
---- -- -- --  -------------   -----------  ------ ------ -----  --- ---- ---
2021 12 02 01  02 25 10.461   +35 21 57.76  1.0504 1.9633 149.2 21.9  37d 154
2021 12 02 02  02 25 04.905   +35 22 11.42  1.0507 1.9634 149.1 21.9  37d 154
2021 12 02 03  02 24 59.356   +35 22 25.03  1.0511 1.9635 149.1 21.9  37d 154
2021 12 02 04  02 24 53.813   +35 22 38.60  1.0514 1.9636 149.0 21.9  37d 154
2021 12 02 05  02 24 48.277   +35 22 52.14  1.0517 1.9636 149.0 21.9  37d 154
2021 12 02 06  02 24 42.748   +35 23 05.64  1.0521 1.9637 148.9 21.9  37d 154
2021 12 02 07  02 24 37.226   +35 23 19.10  1.0524 1.9638 148.9 21.9  37d 154
2021 12 02 08  02 24 31.711   +35 23 32.52  1.0528 1.9639 148.8 21.9  37d 154
2021 12 02 09  02 24 26.202   +35 23 45.90  1.0531 1.9640 148.8 21.9  37d 154
2021 12 02 10  02 24 20.700   +35 23 59.24  1.0535 1.9641 148.7 21.9  38d 154
2021 12 02 11  02 24 15.205   +35 24 12.55  1.0538 1.9641 148.7 21.9  38d 154
2021 12 02 12  02 24 09.716   +35 24 25.82  1.0541 1.9642 148.6 21.9  38d 154
2021 12 02 13  02 24 04.234   +35 24 39.05  1.0545 1.9643 148.6 21.9  38d 154
2021 12 02 14  02 23 58.759   +35 24 52.24  1.0548 1.9644 148.5 21.9  38d 154
2021 12 02 15  02 23 53.291   +35 25 05.40  1.0552 1.9645 148.5 21.9  38d 154
2021 12 02 16  02 23 47.830   +35 25 18.52  1.0555 1.9645 148.4 21.9  38d 154
2021 12 02 17  02 23 42.376   +35 25 31.60  1.0559 1.9646 148.4 21.9  38d 154
2021 12 02 18  02 23 36.928   +35 25 44.64  1.0562 1.9647 148.3 21.9  38d 154
2021 12 02 19  02 23 31.487   +35 25 57.65  1.0566 1.9648 148.3 21.9  38d 154
2021 12 02 20  02 23 26.053   +35 26 10.62  1.0569 1.9649 148.2 21.9  38d 154
2021 12 02 21  02 23 20.626   +35 26 23.55  1.0573 1.9650 148.2 21.9  38d 154
2021 12 02 22  02 23 15.205   +35 26 36.45  1.0576 1.9650 148.1 21.9  38d 154
2021 12 02 23  02 23 09.792   +35 26 49.31  1.0580 1.9651 148.1 21.9  38d 154
2021 12 03 00  02 23 04.385   +35 27 02.13  1.0583 1.9652 148.0 21.9  38d 154
2021 12 03 01  02 22 58.986   +35 27 14.92  1.0587 1.9653 148.0 21.9  38d 154
2021 12 03 02  02 22 53.593   +35 27 27.67  1.0590 1.9654 147.9 21.9  38d 154
2021 12 03 03  02 22 48.207   +35 27 40.38  1.0594 1.9654 147.9 21.9  38d 154
2021 12 03 04  02 22 42.828   +35 27 53.06  1.0597 1.9655 147.8 21.9  38d 154
2021 12 03 05  02 22 37.455   +35 28 05.70  1.0601 1.9656 147.8 21.9  38d 154
2021 12 03 06  02 22 32.090   +35 28 18.30  1.0604 1.9657 147.7 21.9  38d 154
2021 12 03 07  02 22 26.732   +35 28 30.87  1.0608 1.9658 147.7 21.9  38d 154
2021 12 03 08  02 22 21.380   +35 28 43.40  1.0611 1.9659 147.6 21.9  38d 154
2021 12 03 09  02 22 16.035   +35 28 55.90  1.0615 1.9659 147.6 21.9  38d 154
2021 12 03 10  02 22 10.698   +35 29 08.36  1.0618 1.9660 147.5 21.9  38d 154
2021 12 03 11  02 22 05.367   +35 29 20.79  1.0622 1.9661 147.5 21.9  38d 154
2021 12 03 12  02 22 00.043   +35 29 33.17  1.0625 1.9662 147.4 21.9  38d 154
2021 12 03 13  02 21 54.726   +35 29 45.53  1.0629 1.9663 147.4 21.9  38d 154
2021 12 03 14  02 21 49.416   +35 29 57.85  1.0633 1.9663 147.3 21.9  38d 154
2021 12 03 15  02 21 44.113   +35 30 10.13  1.0636 1.9664 147.3 21.9  38d 154
2021 12 03 16  02 21 38.817   +35 30 22.38  1.0640 1.9665 147.2 21.9  38d 154
2021 12 03 17  02 21 33.528   +35 30 34.59  1.0643 1.9666 147.2 21.9  38d 154
2021 12 03 18  02 21 28.246   +35 30 46.77  1.0647 1.9667 147.1 21.9  38d 154
2021 12 03 19  02 21 22.971   +35 30 58.92  1.0650 1.9668 147.1 21.9  38d 154
2021 12 03 20  02 21 17.703   +35 31 11.03  1.0654 1.9668 147.0 21.9  38d 154
2021 12 03 21  02 21 12.442   +35 31 23.10  1.0658 1.9669 147.0 22.0  38d 154
2021 12 03 22  02 21 07.188   +35 31 35.14  1.0661 1.9670 146.9 22.0  38d 154
2021 12 03 23  02 21 01.941   +35 31 47.15  1.0665 1.9671 146.9 22.0  38d 154
2021 12 04 00  02 20 56.701   +35 31 59.12  1.0668 1.9672 146.8 22.0  38d 154